Time,TemperatureF,DewpointF,PressureIn,WindDirection,WindDirectionDegrees,WindSpeedMPH,WindSpeedGustMPH,Humidity,HourlyPrecipIn,Conditions,Clouds,dailyrainin,SoftwareType,DateUTC
2013-05-07 00:01:00,49.1,46.6,30.08,NW,322,0.0,0.0,91,0.00,,---,0.00,VWS V14.00,2013-05-07 05:01:00,
2013-05-07 00:06:00,48.9,46.4,30.08,NW,322,0.0,0.0,91,0.00,,---,0.00,VWS V14.00,2013-05-07 05:06:00,
2013-05-07 00:11:00,48.8,46.3,30.08,NW,322,0.0,0.0,91,0.00,,---,0.00,VWS V14.00,2013-05-07 05:11:00,
2013-05-07 00:16:00,48.9,46.7,30.08,NW,322,0.0,0.0,92,0.00,,---,0.00,VWS V14.00,2013-05-07 05:16:00,
2013-05-07 00:21:00,48.8,46.6,30.08,NW,322,0.0,0.0,92,0.00,,---,0.00,VWS V14.00,2013-05-07 05:21:00,
2013-05-07 00:26:00,48.8,46.6,30.08,NW,322,0.0,0.0,92,0.00,,---,0.00,VWS V14.00,2013-05-07 05:26:00,
2013-05-07 00:31:00,48.6,46.4,30.08,NW,322,0.0,0.0,92,0.00,,---,0.00,VWS V14.00,2013-05-07 05:31:00,
2013-05-07 00:36:00,48.5,46.3,30.08,NW,322,0.0,0.0,92,0.00,,---,0.00,VWS V14.00,2013-05-07 05:36:00,
2013-05-07 00:41:00,48.3,46.1,30.08,NW,322,0.0,0.0,92,0.00,,---,0.00,VWS V14.00,2013-05-07 05:41:00,
2013-05-07 00:46:00,48.2,46.0,30.08,NW,322,0.0,0.0,92,0.00,,---,0.00,VWS V14.00,2013-05-07 05:46:00,
2013-05-07 00:51:00,47.9,45.7,30.08,NW,322,0.0,0.0,92,0.00,,---,0.00,VWS V14.00,2013-05-07 05:51:00,
2013-05-07 00:56:00,47.7,45.5,30.08,NW,322,0.0,0.0,92,0.00,,---,0.00,VWS V14.00,2013-05-07 05:56:00,
2013-05-07 01:01:00,47.6,45.4,30.08,NW,322,0.0,0.0,92,0.00,,---,0.00,VWS V14.00,2013-05-07 06:01:00,
2013-05-07 01:06:00,47.6,45.4,30.07,NW,322,0.0,0.0,92,0.00,,---,0.00,VWS V14.00,2013-05-07 06:06:00,
2013-05-07 01:11:00,47.4,45.2,30.08,NW,322,0.0,0.0,92,0.00,,---,0.00,VWS V14.00,2013-05-07 06:11:00,
2013-05-07 01:16:00,47.4,45.2,30.07,NW,322,0.0,0.0,92,0.00,,---,0.00,VWS V14.00,2013-05-07 06:16:00,
2013-05-07 01:21:00,47.3,45.1,30.07,NW,322,0.0,0.0,92,0.00,,---,0.00,VWS V14.00,2013-05-07 06:21:00,
2013-05-07 01:26:00,47.3,45.1,30.07,NW,322,0.0,0.0,92,0.00,,---,0.00,VWS V14.00,2013-05-07 06:26:00,
2013-05-07 01:31:00,47.3,45.4,30.07,NW,322,0.0,0.0,93,0.00,,---,0.00,VWS V14.00,2013-05-07 06:31:00,
2013-05-07 01:36:00,47.3,45.4,30.07,NW,322,0.0,0.0,93,0.00,,---,0.00,VWS V14.00,2013-05-07 06:36:00,
2013-05-07 01:41:00,47.1,45.2,30.06,NW,322,0.0,0.0,93,0.00,,---,0.00,VWS V14.00,2013-05-07 06:41:00,
2013-05-07 01:46:00,47.0,45.1,30.06,NW,322,0.0,0.0,93,0.00,,---,0.00,VWS V14.00,2013-05-07 06:46:00,
2013-05-07 01:51:00,46.8,44.9,30.07,NW,322,0.0,0.0,93,0.00,,---,0.00,VWS V14.00,2013-05-07 06:51:00,
2013-05-07 01:56:00,46.7,44.8,30.06,NW,322,0.0,0.0,93,0.00,,---,0.00,VWS V14.00,2013-05-07 06:56:00,
2013-05-07 02:01:00,46.5,44.6,30.06,NW,322,0.0,0.0,93,0.00,,---,0.00,VWS V14.00,2013-05-07 07:01:00,
2013-05-07 02:06:00,46.5,44.6,30.06,NW,322,0.0,0.0,93,0.00,,---,0.00,VWS V14.00,2013-05-07 07:06:00,
2013-05-07 02:11:00,46.5,44.6,30.06,NW,322,0.0,0.0,93,0.00,,---,0.00,VWS V14.00,2013-05-07 07:11:00,
2013-05-07 02:15:00,46.5,44.6,30.06,NW,322,0.0,0.0,93,0.00,,---,0.00,VWS V14.00,2013-05-07 07:15:00,
2013-05-07 02:20:00,46.4,44.5,30.06,NW,322,0.0,0.0,93,0.00,,---,0.00,VWS V14.00,2013-05-07 07:20:00,
2013-05-07 02:25:00,46.4,44.5,30.06,NW,322,0.0,0.0,93,0.00,,---,0.00,VWS V14.00,2013-05-07 07:25:00,
2013-05-07 02:30:00,46.2,44.3,30.06,NW,322,0.0,0.0,93,0.00,,---,0.00,VWS V14.00,2013-05-07 07:30:00,
2013-05-07 02:35:00,46.2,44.6,30.06,NW,322,0.0,0.0,94,0.00,,---,0.00,VWS V14.00,2013-05-07 07:35:00,
2013-05-07 02:40:00,46.2,44.6,30.05,NW,322,0.0,0.0,94,0.00,,---,0.00,VWS V14.00,2013-05-07 07:40:00,
2013-05-07 02:45:00,46.2,44.6,30.05,NW,322,0.0,0.0,94,0.00,,---,0.00,VWS V14.00,2013-05-07 07:45:00,
2013-05-07 02:50:00,46.1,44.5,30.05,NW,322,0.0,0.0,94,0.00,,---,0.00,VWS V14.00,2013-05-07 07:50:00,
2013-05-07 02:55:00,46.1,44.5,30.05,NW,322,0.0,0.0,94,0.00,,---,0.00,VWS V14.00,2013-05-07 07:55:00,
2013-05-07 03:00:00,46.0,44.4,30.05,NW,322,0.0,0.0,94,0.00,,---,0.00,VWS V14.00,2013-05-07 08:00:00,
2013-05-07 03:05:00,46.1,44.5,30.04,NW,322,0.0,0.0,94,0.00,,---,0.00,VWS V14.00,2013-05-07 08:05:00,
2013-05-07 03:10:00,46.0,44.4,30.05,NW,322,0.0,0.0,94,0.00,,---,0.00,VWS V14.00,2013-05-07 08:10:00,
2013-05-07 03:15:00,45.7,44.1,30.05,NW,322,0.0,0.0,94,0.00,,---,0.00,VWS V14.00,2013-05-07 08:15:00,
2013-05-07 03:20:00,45.5,43.9,30.05,NW,322,0.0,0.0,94,0.00,,---,0.00,VWS V14.00,2013-05-07 08:20:00,
2013-05-07 03:25:00,45.2,43.6,30.05,NW,322,0.0,0.0,94,0.00,,---,0.00,VWS V14.00,2013-05-07 08:25:00,
2013-05-07 03:30:00,45.1,43.5,30.05,NW,322,0.0,0.0,94,0.00,,---,0.00,VWS V14.00,2013-05-07 08:30:00,
2013-05-07 03:35:00,45.1,43.5,30.04,NW,322,0.0,0.0,94,0.00,,---,0.00,VWS V14.00,2013-05-07 08:35:00,
2013-05-07 03:40:00,45.1,43.5,30.04,NW,322,0.0,0.0,94,0.00,,---,0.00,VWS V14.00,2013-05-07 08:40:00,
2013-05-07 03:45:00,45.1,43.5,30.04,NW,322,0.0,0.0,94,0.00,,---,0.00,VWS V14.00,2013-05-07 08:45:00,
2013-05-07 03:50:00,45.1,43.5,30.04,NW,322,0.0,0.0,94,0.00,,---,0.00,VWS V14.00,2013-05-07 08:50:00,
2013-05-07 03:55:00,45.1,43.8,30.04,NW,322,0.0,0.0,95,0.00,,---,0.00,VWS V14.00,2013-05-07 08:55:00,
2013-05-07 04:00:00,45.1,43.5,30.04,NW,322,0.0,0.0,94,0.00,,---,0.00,VWS V14.00,2013-05-07 09:00:00,
2013-05-07 04:05:00,45.1,43.8,30.04,NW,322,0.0,0.0,95,0.00,,---,0.00,VWS V14.00,2013-05-07 09:05:00,
2013-05-07 04:10:00,44.9,43.6,30.05,NW,322,0.0,0.0,95,0.00,,---,0.00,VWS V14.00,2013-05-07 09:10:00,
2013-05-07 04:15:00,44.8,43.5,30.05,NW,322,0.0,0.0,95,0.00,,---,0.00,VWS V14.00,2013-05-07 09:15:00,
2013-05-07 04:20:00,44.6,43.3,30.05,NW,322,0.0,0.0,95,0.00,,---,0.00,VWS V14.00,2013-05-07 09:20:00,
2013-05-07 04:25:00,44.5,43.2,30.05,NW,322,0.0,0.0,95,0.00,,---,0.00,VWS V14.00,2013-05-07 09:25:00,
2013-05-07 04:30:00,44.5,43.2,30.05,NW,322,0.0,0.0,95,0.00,,---,0.00,VWS V14.00,2013-05-07 09:30:00,
2013-05-07 04:35:00,44.5,43.2,30.05,NW,322,0.0,0.0,95,0.00,,---,0.00,VWS V14.00,2013-05-07 09:35:00,
2013-05-07 04:40:00,44.5,43.2,30.05,NW,322,0.0,0.0,95,0.00,,---,0.00,VWS V14.00,2013-05-07 09:40:00,
2013-05-07 04:45:00,44.3,43.0,30.05,NW,322,0.0,0.0,95,0.00,,---,0.00,VWS V14.00,2013-05-07 09:45:00,
2013-05-07 04:50:00,44.3,43.0,30.05,NW,322,0.0,0.0,95,0.00,,---,0.00,VWS V14.00,2013-05-07 09:50:00,
2013-05-07 04:55:00,44.3,43.0,30.06,NW,322,0.0,0.0,95,0.00,,---,0.00,VWS V14.00,2013-05-07 09:55:00,
2013-05-07 05:00:00,44.2,42.9,30.05,NW,322,0.0,0.0,95,0.00,,---,0.00,VWS V14.00,2013-05-07 10:00:00,
2013-05-07 05:05:00,44.1,42.8,30.05,NW,322,0.0,0.0,95,0.00,,---,0.00,VWS V14.00,2013-05-07 10:05:00,
2013-05-07 05:10:00,43.9,42.6,30.06,NW,322,0.0,0.0,95,0.00,,---,0.00,VWS V14.00,2013-05-07 10:10:00,
2013-05-07 05:15:00,43.8,42.5,30.06,NW,322,0.0,0.0,95,0.00,,---,0.00,VWS V14.00,2013-05-07 10:15:00,
2013-05-07 05:20:00,43.8,42.5,30.06,NW,322,0.0,0.0,95,0.00,,---,0.00,VWS V14.00,2013-05-07 10:20:00,
2013-05-07 05:25:00,43.9,42.6,30.06,NW,322,0.0,0.0,95,0.00,,---,0.00,VWS V14.00,2013-05-07 10:25:00,
2013-05-07 05:30:00,43.8,42.5,30.06,NW,322,0.0,0.0,95,0.00,,---,0.00,VWS V14.00,2013-05-07 10:30:00,
2013-05-07 05:35:00,43.9,42.6,30.06,NW,322,0.0,0.0,95,0.00,,---,0.00,VWS V14.00,2013-05-07 10:35:00,
2013-05-07 05:40:00,43.9,42.6,30.06,NW,322,0.0,0.0,95,0.00,,---,0.00,VWS V14.00,2013-05-07 10:40:00,
2013-05-07 05:45:00,44.1,42.8,30.06,NW,322,0.0,0.0,95,0.00,,---,0.00,VWS V14.00,2013-05-07 10:45:00,
2013-05-07 05:50:00,44.1,42.8,30.06,NW,322,0.0,0.0,95,0.00,,---,0.00,VWS V14.00,2013-05-07 10:50:00,
2013-05-07 05:55:00,44.1,42.8,30.06,NW,322,0.0,0.0,95,0.00,,---,0.00,VWS V14.00,2013-05-07 10:55:00,
2013-05-07 06:00:00,44.1,42.8,30.06,NW,322,0.0,0.0,95,0.00,,---,0.00,VWS V14.00,2013-05-07 11:00:00,
2013-05-07 06:05:00,44.1,42.8,30.06,NW,322,0.0,0.0,95,0.00,,---,0.00,VWS V14.00,2013-05-07 11:05:00,
2013-05-07 06:10:00,44.1,42.8,30.06,NW,322,0.0,0.0,95,0.00,,---,0.00,VWS V14.00,2013-05-07 11:10:00,
2013-05-07 06:15:00,44.1,42.8,30.06,NW,322,0.0,0.0,95,0.00,,---,0.00,VWS V14.00,2013-05-07 11:15:00,
2013-05-07 06:20:00,43.9,42.6,30.06,NW,322,0.0,0.0,95,0.00,,---,0.00,VWS V14.00,2013-05-07 11:20:00,
2013-05-07 06:25:00,43.8,42.5,30.07,NW,322,0.0,0.0,95,0.00,,---,0.00,VWS V14.00,2013-05-07 11:25:00,
2013-05-07 06:30:00,43.6,42.3,30.07,NW,322,0.0,0.0,95,0.00,,---,0.00,VWS V14.00,2013-05-07 11:30:00,
2013-05-07 06:35:00,43.6,42.3,30.07,NW,322,0.0,0.0,95,0.00,,---,0.00,VWS V14.00,2013-05-07 11:35:00,
2013-05-07 06:40:00,43.5,42.2,30.07,NNW,329,0.0,0.0,95,0.00,,---,0.00,VWS V14.00,2013-05-07 11:40:00,
2013-05-07 06:45:00,43.3,42.0,30.07,ENE,59,0.0,0.0,95,0.00,,---,0.00,VWS V14.00,2013-05-07 11:45:00,
2013-05-07 06:50:00,43.3,42.0,30.07,ENE,77,0.0,0.0,95,0.00,,---,0.00,VWS V14.00,2013-05-07 11:50:00,
2013-05-07 06:55:00,43.5,42.4,30.08,ENE,77,0.0,0.0,96,0.00,,---,0.00,VWS V14.00,2013-05-07 11:55:00,
2013-05-07 07:00:00,43.8,42.7,30.08,ENE,64,0.0,0.0,96,0.00,,---,0.00,VWS V14.00,2013-05-07 12:00:00,
2013-05-07 07:05:00,43.9,42.8,30.08,ENE,64,0.0,0.0,96,0.00,,---,0.00,VWS V14.00,2013-05-07 12:05:00,
2013-05-07 07:10:00,44.3,43.2,30.08,ENE,64,0.0,0.0,96,0.00,,---,0.00,VWS V14.00,2013-05-07 12:10:00,
2013-05-07 07:15:00,44.5,43.4,30.08,ENE,64,0.0,0.0,96,0.00,,---,0.00,VWS V14.00,2013-05-07 12:15:00,
2013-05-07 07:20:00,44.5,43.4,30.08,ENE,64,0.0,0.0,96,0.00,,---,0.00,VWS V14.00,2013-05-07 12:20:00,
2013-05-07 07:25:00,44.8,43.7,30.08,ENE,64,0.0,0.0,96,0.00,,---,0.00,VWS V14.00,2013-05-07 12:25:00,
2013-05-07 07:30:00,45.2,44.1,30.08,ENE,64,0.0,0.0,96,0.00,,---,0.00,VWS V14.00,2013-05-07 12:30:00,
2013-05-07 07:35:00,45.5,44.4,30.08,ENE,64,0.0,0.0,96,0.00,,---,0.00,VWS V14.00,2013-05-07 12:35:00,
2013-05-07 07:40:00,45.8,44.7,30.08,ENE,65,0.0,0.0,96,0.00,,---,0.00,VWS V14.00,2013-05-07 12:40:00,
2013-05-07 07:45:00,46.2,45.1,30.08,NE,49,0.0,0.0,96,0.00,,---,0.00,VWS V14.00,2013-05-07 12:45:00,
2013-05-07 07:50:00,46.4,45.3,30.09,NE,49,0.0,0.0,96,0.00,,---,0.00,VWS V14.00,2013-05-07 12:50:00,
2013-05-07 07:55:00,46.7,45.6,30.09,NE,46,0.0,0.0,96,0.00,,---,0.00,VWS V14.00,2013-05-07 12:55:00,
2013-05-07 08:00:00,46.8,45.5,30.09,NE,46,0.0,0.0,95,0.00,,---,0.00,VWS V14.00,2013-05-07 13:00:00,
2013-05-07 08:05:00,47.3,45.9,30.09,NE,46,0.0,0.0,95,0.00,,---,0.00,VWS V14.00,2013-05-07 13:05:00,
2013-05-07 08:10:00,47.7,46.3,30.09,NE,46,0.0,0.0,95,0.00,,---,0.00,VWS V14.00,2013-05-07 13:10:00,
2013-05-07 08:15:00,48.0,46.6,30.09,NE,37,0.0,0.0,95,0.00,,---,0.00,VWS V14.00,2013-05-07 13:15:00,
2013-05-07 08:20:00,48.5,47.1,30.09,NE,37,0.0,0.0,95,0.00,,---,0.00,VWS V14.00,2013-05-07 13:20:00,
2013-05-07 08:25:00,49.1,47.5,30.09,NE,37,0.0,0.0,94,0.00,,---,0.00,VWS V14.00,2013-05-07 13:25:00,
2013-05-07 08:30:00,49.6,48.0,30.09,NE,37,0.0,0.0,94,0.00,,---,0.00,VWS V14.00,2013-05-07 13:30:00,
2013-05-07 08:35:00,50.1,48.2,30.09,NE,37,0.0,0.0,93,0.00,,---,0.00,VWS V14.00,2013-05-07 13:35:00,
2013-05-07 08:40:00,50.2,48.3,30.09,NE,37,0.0,0.0,93,0.00,,---,0.00,VWS V14.00,2013-05-07 13:40:00,
2013-05-07 08:45:00,50.7,48.8,30.09,NE,37,0.0,0.0,93,0.00,,---,0.00,VWS V14.00,2013-05-07 13:45:00,
2013-05-07 08:50:00,51.3,49.3,30.09,NE,37,0.0,0.0,93,0.00,,---,0.00,VWS V14.00,2013-05-07 13:50:00,
2013-05-07 08:55:00,51.6,49.7,30.09,NE,37,0.0,0.0,93,0.00,,---,0.00,VWS V14.00,2013-05-07 13:55:00,
2013-05-07 09:00:00,52.2,50.2,30.09,NE,37,0.0,0.0,93,0.00,,---,0.00,VWS V14.00,2013-05-07 14:00:00,
2013-05-07 09:05:00,52.6,50.3,30.09,NE,37,0.0,0.0,92,0.00,,---,0.00,VWS V14.00,2013-05-07 14:05:00,
2013-05-07 09:10:00,53.3,51.0,30.09,NE,37,0.0,0.0,92,0.00,,---,0.00,VWS V14.00,2013-05-07 14:10:00,
2013-05-07 09:15:00,53.9,51.3,30.09,NE,37,0.0,0.0,91,0.00,,---,0.00,VWS V14.00,2013-05-07 14:15:00,
2013-05-07 09:20:00,54.5,51.9,30.09,NE,37,0.0,0.0,91,0.00,,---,0.00,VWS V14.00,2013-05-07 14:20:00,
2013-05-07 09:25:00,55.0,52.1,30.09,East,85,0.0,0.0,90,0.00,,---,0.00,VWS V14.00,2013-05-07 14:25:00,
2013-05-07 09:30:00,55.4,52.5,30.09,East,85,0.0,0.0,90,0.00,,---,0.00,VWS V14.00,2013-05-07 14:30:00,
2013-05-07 09:35:00,56.0,52.8,30.09,East,85,0.0,0.0,89,0.00,,---,0.00,VWS V14.00,2013-05-07 14:35:00,
2013-05-07 09:40:00,56.6,53.4,30.09,East,85,0.0,0.0,89,0.00,,---,0.00,VWS V14.00,2013-05-07 14:40:00,
2013-05-07 09:45:00,57.6,54.1,30.09,East,85,0.0,0.0,88,0.00,,---,0.00,VWS V14.00,2013-05-07 14:45:00,
2013-05-07 09:50:00,58.7,54.5,30.09,East,85,0.0,0.0,86,0.00,,---,0.00,VWS V14.00,2013-05-07 14:50:00,
2013-05-07 09:55:00,59.3,54.8,30.09,East,80,0.0,0.0,85,0.00,,---,0.00,VWS V14.00,2013-05-07 14:55:00,
2013-05-07 10:00:00,59.3,54.8,30.09,East,80,0.0,0.0,85,0.00,,---,0.00,VWS V14.00,2013-05-07 15:00:00,
2013-05-07 10:05:00,59.8,55.0,30.09,East,80,0.0,0.0,84,0.00,,---,0.00,VWS V14.00,2013-05-07 15:05:00,
2013-05-07 10:10:00,60.4,55.2,30.09,East,80,1.0,1.0,83,0.00,,---,0.00,VWS V14.00,2013-05-07 15:10:00,
2013-05-07 10:15:00,60.7,55.2,30.08,East,80,2.0,2.0,82,0.00,,---,0.00,VWS V14.00,2013-05-07 15:15:00,
2013-05-07 10:20:00,61.2,55.3,30.08,East,80,0.0,0.0,81,0.00,,---,0.00,VWS V14.00,2013-05-07 15:20:00,
2013-05-07 10:25:00,62.1,55.9,30.08,East,80,0.0,0.0,80,0.00,,---,0.00,VWS V14.00,2013-05-07 15:25:00,
2013-05-07 10:30:00,62.9,56.3,30.08,East,80,0.0,0.0,79,0.00,,---,0.00,VWS V14.00,2013-05-07 15:30:00,
2013-05-07 10:35:00,63.2,56.6,30.08,East,80,0.0,0.0,79,0.00,,---,0.00,VWS V14.00,2013-05-07 15:35:00,
2013-05-07 10:40:00,64.2,56.8,30.08,East,80,0.0,0.0,77,0.00,,---,0.00,VWS V14.00,2013-05-07 15:40:00,
2013-05-07 10:45:00,64.5,56.8,30.07,East,80,0.0,0.0,76,0.00,,---,0.00,VWS V14.00,2013-05-07 15:45:00,
2013-05-07 10:50:00,64.8,57.1,30.08,East,80,0.0,0.0,76,0.00,,---,0.00,VWS V14.00,2013-05-07 15:50:00,
2013-05-07 10:55:00,64.8,56.7,30.08,East,80,0.0,0.0,75,0.00,,---,0.00,VWS V14.00,2013-05-07 15:55:00,
2013-05-07 11:00:00,64.8,56.7,30.08,East,80,0.0,0.0,75,0.00,,---,0.00,VWS V14.00,2013-05-07 16:00:00,
2013-05-07 11:05:00,65.8,57.3,30.08,East,80,0.0,0.0,74,0.00,,---,0.00,VWS V14.00,2013-05-07 16:05:00,
2013-05-07 11:10:00,66.3,57.4,30.08,East,80,0.0,0.0,73,0.00,,---,0.00,VWS V14.00,2013-05-07 16:10:00,
2013-05-07 11:15:00,66.6,57.3,30.08,East,80,0.0,0.0,72,0.00,,---,0.00,VWS V14.00,2013-05-07 16:15:00,
2013-05-07 11:20:00,67.1,57.8,30.08,East,80,0.0,0.0,72,0.00,,---,0.00,VWS V14.00,2013-05-07 16:20:00,
2013-05-07 11:25:00,67.3,56.8,30.08,East,80,0.0,0.0,69,0.00,,---,0.00,VWS V14.00,2013-05-07 16:25:00,
2013-05-07 11:30:00,67.8,56.9,30.07,East,80,0.0,0.0,68,0.00,,---,0.00,VWS V14.00,2013-05-07 16:30:00,
2013-05-07 11:35:00,68.4,57.0,30.07,East,80,0.0,0.0,67,0.00,,---,0.00,VWS V14.00,2013-05-07 16:35:00,
2013-05-07 11:40:00,68.8,56.1,30.07,East,80,0.0,0.0,64,0.00,,---,0.00,VWS V14.00,2013-05-07 16:40:00,
2013-05-07 11:45:00,68.8,55.7,30.07,ENE,75,4.0,4.0,63,0.00,,---,0.00,VWS V14.00,2013-05-07 16:45:00,
2013-05-07 11:50:00,68.4,54.0,30.08,ENE,67,1.0,3.0,60,0.00,,---,0.00,VWS V14.00,2013-05-07 16:50:00,
2013-05-07 11:55:00,68.4,54.0,30.08,ENE,67,0.0,0.0,60,0.00,,---,0.00,VWS V14.00,2013-05-07 16:55:00,
2013-05-07 12:00:00,68.6,53.7,30.07,ENE,67,0.0,0.0,59,0.00,,---,0.00,VWS V14.00,2013-05-07 17:00:00,
2013-05-07 12:05:00,69.1,54.7,30.07,ENE,67,0.0,0.0,60,0.00,,---,0.00,VWS V14.00,2013-05-07 17:05:00,
2013-05-07 12:10:00,69.6,55.1,30.07,ENE,67,0.0,0.0,60,0.00,,---,0.00,VWS V14.00,2013-05-07 17:10:00,
2013-05-07 12:15:00,70.3,54.8,30.07,ENE,67,0.0,0.0,58,0.00,,---,0.00,VWS V14.00,2013-05-07 17:15:00,
2013-05-07 12:20:00,70.8,55.3,30.07,ENE,67,0.0,0.0,58,0.00,,---,0.00,VWS V14.00,2013-05-07 17:20:00,
2013-05-07 12:25:00,70.9,54.4,30.06,ENE,69,2.0,3.0,56,0.00,,---,0.00,VWS V14.00,2013-05-07 17:25:00,
2013-05-07 12:30:00,70.4,53.5,30.06,ENE,78,0.0,4.0,55,0.00,,---,0.00,VWS V14.00,2013-05-07 17:30:00,
2013-05-07 12:35:00,69.9,53.0,30.06,East,79,3.0,3.0,55,0.00,,---,0.00,VWS V14.00,2013-05-07 17:35:00,
2013-05-07 12:40:00,69.8,52.9,30.06,East,79,0.0,0.0,55,0.00,,---,0.00,VWS V14.00,2013-05-07 17:40:00,
2013-05-07 12:45:00,69.9,53.0,30.06,East,79,0.0,0.0,55,0.00,,---,0.00,VWS V14.00,2013-05-07 17:45:00,
2013-05-07 12:50:00,70.4,53.5,30.06,East,79,3.0,4.0,55,0.00,,---,0.00,VWS V14.00,2013-05-07 17:50:00,
2013-05-07 12:55:00,70.3,52.4,30.06,ESE,123,2.0,3.0,53,0.00,,---,0.00,VWS V14.00,2013-05-07 17:55:00,
2013-05-07 13:00:00,70.6,53.7,30.06,SE,128,2.0,2.0,55,0.00,,---,0.00,VWS V14.00,2013-05-07 18:00:00,
2013-05-07 13:05:00,70.9,52.4,30.05,SE,128,0.0,2.0,52,0.00,,---,0.00,VWS V14.00,2013-05-07 18:05:00,
2013-05-07 13:10:00,71.8,52.7,30.05,SE,140,0.0,0.0,51,0.00,,---,0.00,VWS V14.00,2013-05-07 18:10:00,
2013-05-07 13:15:00,71.8,52.2,30.04,ESE,121,4.0,4.0,50,0.00,,---,0.00,VWS V14.00,2013-05-07 18:15:00,
2013-05-07 13:20:00,71.3,51.2,30.04,SE,140,0.0,5.0,49,0.00,,---,0.00,VWS V14.00,2013-05-07 18:20:00,
2013-05-07 13:25:00,71.5,51.9,30.04,SE,141,0.0,2.0,50,0.00,,---,0.00,VWS V14.00,2013-05-07 18:25:00,
2013-05-07 13:30:00,72.0,51.8,30.04,SE,141,0.0,0.0,49,0.00,,---,0.00,VWS V14.00,2013-05-07 18:30:00,
2013-05-07 13:35:00,72.3,52.1,30.04,SE,141,0.0,0.0,49,0.00,,---,0.00,VWS V14.00,2013-05-07 18:35:00,
2013-05-07 13:40:00,72.8,52.0,30.04,SE,141,0.0,1.0,48,0.00,,---,0.00,VWS V14.00,2013-05-07 18:40:00,
2013-05-07 13:45:00,72.7,51.3,30.04,SE,141,4.0,4.0,47,0.00,,---,0.00,VWS V14.00,2013-05-07 18:45:00,
2013-05-07 13:50:00,72.5,50.6,30.04,NNE,28,4.0,5.0,46,0.00,,---,0.00,VWS V14.00,2013-05-07 18:50:00,
2013-05-07 13:55:00,72.3,51.0,30.04,NNE,26,2.0,3.0,47,0.00,,---,0.00,VWS V14.00,2013-05-07 18:55:00,
2013-05-07 14:00:00,72.3,49.8,30.03,NNE,24,3.0,4.0,45,0.00,,---,0.00,VWS V14.00,2013-05-07 19:00:00,
2013-05-07 14:05:00,72.3,49.8,30.03,NNE,17,0.0,0.0,45,0.00,,---,0.00,VWS V14.00,2013-05-07 19:05:00,
2013-05-07 14:10:00,72.5,51.2,30.03,NNE,17,0.0,1.0,47,0.00,,---,0.00,VWS V14.00,2013-05-07 19:10:00,
2013-05-07 14:15:00,73.0,51.0,30.03,NNE,17,0.0,0.0,46,0.00,,---,0.00,VWS V14.00,2013-05-07 19:15:00,
2013-05-07 14:20:00,73.5,52.1,30.03,NNE,17,1.0,1.0,47,0.00,,---,0.00,VWS V14.00,2013-05-07 19:20:00,
2013-05-07 14:25:00,73.0,51.6,30.03,NNE,17,2.0,4.0,47,0.00,,---,0.00,VWS V14.00,2013-05-07 19:25:00,
2013-05-07 14:30:00,73.0,50.4,30.03,NNE,17,4.0,4.0,45,0.00,,---,0.00,VWS V14.00,2013-05-07 19:30:00,
2013-05-07 14:35:00,72.8,50.2,30.02,NNE,17,0.0,0.0,45,0.00,,---,0.00,VWS V14.00,2013-05-07 19:35:00,
2013-05-07 14:40:00,73.2,50.0,30.02,ENE,59,0.0,0.0,44,0.00,,---,0.00,VWS V14.00,2013-05-07 19:40:00,
2013-05-07 14:45:00,73.5,50.9,30.02,ESE,117,0.0,0.0,45,0.00,,---,0.00,VWS V14.00,2013-05-07 19:45:00,
2013-05-07 14:50:00,73.5,49.7,30.02,ESE,111,2.0,3.0,43,0.00,,---,0.00,VWS V14.00,2013-05-07 19:50:00,
2013-05-07 14:55:00,73.5,49.7,30.01,ESE,109,0.0,3.0,43,0.00,,---,0.00,VWS V14.00,2013-05-07 19:55:00,
2013-05-07 15:00:00,73.3,49.5,30.01,ESE,109,2.0,3.0,43,0.00,,---,0.00,VWS V14.00,2013-05-07 20:00:00,
2013-05-07 15:05:00,73.2,49.4,30.01,North,11,1.0,3.0,43,0.00,,---,0.00,VWS V14.00,2013-05-07 20:05:00,
2013-05-07 15:10:00,73.2,49.4,30.01,North,5,0.0,2.0,43,0.00,,---,0.00,VWS V14.00,2013-05-07 20:10:00,
2013-05-07 15:15:00,73.5,49.7,30.01,North,5,0.0,0.0,43,0.00,,---,0.00,VWS V14.00,2013-05-07 20:15:00,
2013-05-07 15:20:00,74.0,50.7,30.01,North,5,0.0,2.0,44,0.00,,---,0.00,VWS V14.00,2013-05-07 20:20:00,
2013-05-07 15:25:00,74.6,50.7,30.00,North,5,0.0,0.0,43,0.00,,---,0.00,VWS V14.00,2013-05-07 20:25:00,
2013-05-07 15:30:00,74.9,50.3,30.00,North,5,0.0,0.0,42,0.00,,---,0.00,VWS V14.00,2013-05-07 20:30:00,
2013-05-07 15:35:00,75.1,51.1,30.00,North,5,0.0,0.0,43,0.00,,---,0.00,VWS V14.00,2013-05-07 20:35:00,
2013-05-07 15:40:00,74.9,49.6,30.00,North,5,1.0,4.0,41,0.00,,---,0.00,VWS V14.00,2013-05-07 20:40:00,
2013-05-07 15:45:00,74.6,50.7,30.00,North,5,0.0,0.0,43,0.00,,---,0.00,VWS V14.00,2013-05-07 20:45:00,
2013-05-07 15:50:00,74.4,50.5,30.00,North,5,0.0,0.0,43,0.00,,---,0.00,VWS V14.00,2013-05-07 20:50:00,
2013-05-07 15:55:00,74.4,50.5,30.00,North,5,0.0,0.0,43,0.00,,---,0.00,VWS V14.00,2013-05-07 20:55:00,
2013-05-07 16:00:00,74.4,49.2,29.99,North,5,0.0,0.0,41,0.00,,---,0.00,VWS V14.00,2013-05-07 21:00:00,
2013-05-07 16:05:00,74.4,49.8,29.99,North,5,0.0,0.0,42,0.00,,---,0.00,VWS V14.00,2013-05-07 21:05:00,
2013-05-07 16:10:00,74.4,49.8,29.99,North,5,0.0,0.0,42,0.00,,---,0.00,VWS V14.00,2013-05-07 21:10:00,
2013-05-07 16:15:00,74.7,50.7,29.99,North,5,0.0,0.0,43,0.00,,---,0.00,VWS V14.00,2013-05-07 21:15:00,
2013-05-07 16:20:00,74.9,50.3,29.99,North,5,0.0,0.0,42,0.00,,---,0.00,VWS V14.00,2013-05-07 21:20:00,
2013-05-07 16:25:00,74.9,49.6,29.99,North,5,0.0,0.0,41,0.00,,---,0.00,VWS V14.00,2013-05-07 21:25:00,
2013-05-07 16:30:00,74.9,49.6,29.99,North,5,0.0,0.0,41,0.00,,---,0.00,VWS V14.00,2013-05-07 21:30:00,
2013-05-07 16:35:00,74.9,49.6,29.99,North,5,0.0,0.0,41,0.00,,---,0.00,VWS V14.00,2013-05-07 21:35:00,
2013-05-07 16:40:00,74.9,48.3,29.99,NNE,12,0.0,0.0,39,0.00,,---,0.00,VWS V14.00,2013-05-07 21:40:00,
2013-05-07 16:45:00,75.1,48.5,29.99,NNE,12,0.0,0.0,39,0.00,,---,0.00,VWS V14.00,2013-05-07 21:45:00,
2013-05-07 16:50:00,75.3,48.0,29.98,NNE,20,0.0,0.0,38,0.00,,---,0.00,VWS V14.00,2013-05-07 21:50:00,
2013-05-07 16:55:00,75.1,48.5,29.98,NNE,19,4.0,4.0,39,0.00,,---,0.00,VWS V14.00,2013-05-07 21:55:00,
2013-05-07 17:00:00,74.7,48.1,29.98,NNE,19,3.0,4.0,39,0.00,,---,0.00,VWS V14.00,2013-05-07 22:00:00,
2013-05-07 17:05:00,74.4,47.9,29.98,NNE,19,0.0,2.0,39,0.00,,---,0.00,VWS V14.00,2013-05-07 22:05:00,
2013-05-07 17:10:00,74.6,48.0,29.98,NNE,19,3.0,3.0,39,0.00,,---,0.00,VWS V14.00,2013-05-07 22:10:00,
2013-05-07 17:15:00,75.1,49.2,29.98,NNE,19,0.0,0.0,40,0.00,,---,0.00,VWS V14.00,2013-05-07 22:15:00,
2013-05-07 17:20:00,75.3,48.0,29.98,NNE,19,0.0,0.0,38,0.00,,---,0.00,VWS V14.00,2013-05-07 22:20:00,
2013-05-07 17:25:00,75.3,48.7,29.98,NNE,19,0.0,0.0,39,0.00,,---,0.00,VWS V14.00,2013-05-07 22:25:00,
2013-05-07 17:30:00,75.6,48.9,29.98,NNE,19,3.0,3.0,39,0.00,,---,0.00,VWS V14.00,2013-05-07 22:30:00,
2013-05-07 17:35:00,75.4,49.4,29.98,NNE,19,4.0,4.0,40,0.00,,---,0.00,VWS V14.00,2013-05-07 22:35:00,
2013-05-07 17:40:00,75.3,49.3,29.98,NNE,19,3.0,4.0,40,0.00,,---,0.00,VWS V14.00,2013-05-07 22:40:00,
2013-05-07 17:45:00,75.1,48.5,29.98,NNE,18,0.0,1.0,39,0.00,,---,0.00,VWS V14.00,2013-05-07 22:45:00,
2013-05-07 17:50:00,75.3,49.3,29.97,NNE,18,0.0,0.0,40,0.00,,---,0.00,VWS V14.00,2013-05-07 22:50:00,
2013-05-07 17:55:00,75.3,50.0,29.97,NNE,18,0.0,0.0,41,0.00,,---,0.00,VWS V14.00,2013-05-07 22:55:00,
2013-05-07 18:00:00,75.3,48.0,29.97,NNE,18,4.0,4.0,38,0.00,,---,0.00,VWS V14.00,2013-05-07 23:00:00,
2013-05-07 18:05:00,75.3,48.0,29.97,NNE,18,0.0,5.0,38,0.00,,---,0.00,VWS V14.00,2013-05-07 23:05:00,
2013-05-07 18:10:00,74.9,46.9,29.97,NNE,19,3.0,4.0,37,0.00,,---,0.00,VWS V14.00,2013-05-07 23:10:00,
2013-05-07 18:15:00,74.9,46.9,29.97,NNE,19,0.0,0.0,37,0.00,,---,0.00,VWS V14.00,2013-05-07 23:15:00,
2013-05-07 18:20:00,74.9,46.2,29.97,North,350,3.0,3.0,36,0.00,,---,0.00,VWS V14.00,2013-05-07 23:20:00,
2013-05-07 18:25:00,74.6,45.9,29.97,North,350,0.0,3.0,36,0.00,,---,0.00,VWS V14.00,2013-05-07 23:25:00,
2013-05-07 18:30:00,74.6,45.9,29.97,North,350,0.0,0.0,36,0.00,,---,0.00,VWS V14.00,2013-05-07 23:30:00,
2013-05-07 18:35:00,74.9,46.2,29.97,North,350,0.0,0.0,36,0.00,,---,0.00,VWS V14.00,2013-05-07 23:35:00,
2013-05-07 18:40:00,74.7,45.3,29.97,North,355,0.0,0.0,35,0.00,,---,0.00,VWS V14.00,2013-05-07 23:40:00,
2013-05-07 18:45:00,74.6,45.9,29.97,North,355,0.0,0.0,36,0.00,,---,0.00,VWS V14.00,2013-05-07 23:45:00,
2013-05-07 18:50:00,74.6,45.9,29.96,North,355,0.0,0.0,36,0.00,,---,0.00,VWS V14.00,2013-05-07 23:50:00,
2013-05-07 18:55:00,74.4,48.5,29.96,North,355,0.0,0.0,40,0.00,,---,0.00,VWS V14.00,2013-05-07 23:55:00,
2013-05-07 19:00:00,74.0,46.8,29.96,North,355,0.0,0.0,38,0.00,,---,0.00,VWS V14.00,2013-05-08 00:00:00,
2013-05-07 19:05:00,73.7,46.5,29.96,North,355,0.0,0.0,38,0.00,,---,0.00,VWS V14.00,2013-05-08 00:05:00,
2013-05-07 19:10:00,73.5,47.0,29.96,North,355,0.0,0.0,39,0.00,,---,0.00,VWS V14.00,2013-05-08 00:10:00,
2013-05-07 19:15:00,73.3,46.2,29.96,NW,307,0.0,0.0,38,0.00,,---,0.00,VWS V14.00,2013-05-08 00:15:00,
2013-05-07 19:20:00,73.3,49.5,29.96,NW,307,0.0,0.0,43,0.00,,---,0.00,VWS V14.00,2013-05-08 00:20:00,
2013-05-07 19:25:00,72.8,48.4,29.96,NW,307,0.0,0.0,42,0.00,,---,0.00,VWS V14.00,2013-05-08 00:25:00,
2013-05-07 19:30:00,72.1,49.0,29.96,NW,307,0.0,0.0,44,0.00,,---,0.00,VWS V14.00,2013-05-08 00:30:00,
2013-05-07 19:35:00,71.6,49.8,29.96,NW,307,0.0,0.0,46,0.00,,---,0.00,VWS V14.00,2013-05-08 00:35:00,
2013-05-07 19:40:00,71.1,50.4,29.96,NE,48,0.0,0.0,48,0.00,,---,0.00,VWS V14.00,2013-05-08 00:40:00,
2013-05-07 19:45:00,70.6,49.4,29.97,NNE,29,0.0,0.0,47,0.00,,---,0.00,VWS V14.00,2013-05-08 00:45:00,
2013-05-07 19:49:00,69.8,49.2,29.97,NNE,29,0.0,0.0,48,0.00,,---,0.00,VWS V14.00,2013-05-08 00:49:00,
2013-05-07 19:54:00,69.1,49.2,29.97,NE,46,0.0,0.0,49,0.00,,---,0.00,VWS V14.00,2013-05-08 00:54:00,
2013-05-07 19:59:00,68.4,49.6,29.98,NE,46,0.0,0.0,51,0.00,,---,0.00,VWS V14.00,2013-05-08 00:59:00,
2013-05-07 20:04:00,67.6,48.8,29.97,NE,45,0.0,0.0,51,0.00,,---,0.00,VWS V14.00,2013-05-08 01:04:00,
2013-05-07 20:09:00,66.9,49.7,29.98,NE,45,0.0,0.0,54,0.00,,---,0.00,VWS V14.00,2013-05-08 01:09:00,
2013-05-07 20:14:00,66.3,49.7,29.98,NE,45,0.0,0.0,55,0.00,,---,0.00,VWS V14.00,2013-05-08 01:14:00,
2013-05-07 20:19:00,66.0,49.4,29.98,NE,45,0.0,0.0,55,0.00,,---,0.00,VWS V14.00,2013-05-08 01:19:00,
2013-05-07 20:24:00,65.5,49.4,29.98,NE,45,0.0,0.0,56,0.00,,---,0.00,VWS V14.00,2013-05-08 01:24:00,
2013-05-07 20:29:00,65.0,49.9,29.98,NE,45,0.0,0.0,58,0.00,,---,0.00,VWS V14.00,2013-05-08 01:29:00,
2013-05-07 20:34:00,64.5,49.9,29.98,NE,45,0.0,0.0,59,0.00,,---,0.00,VWS V14.00,2013-05-08 01:34:00,
2013-05-07 20:39:00,64.2,50.5,29.98,NE,45,0.0,0.0,61,0.00,,---,0.00,VWS V14.00,2013-05-08 01:39:00,
2013-05-07 20:44:00,63.7,50.5,29.98,NE,45,0.0,0.0,62,0.00,,---,0.00,VWS V14.00,2013-05-08 01:44:00,
2013-05-07 20:49:00,63.1,50.7,29.98,NE,45,0.0,0.0,64,0.00,,---,0.00,VWS V14.00,2013-05-08 01:49:00,
2013-05-07 20:54:00,62.6,50.7,29.98,NE,45,0.0,0.0,65,0.00,,---,0.00,VWS V14.00,2013-05-08 01:54:00,
2013-05-07 20:59:00,62.3,50.8,29.98,NE,45,0.0,0.0,66,0.00,,---,0.00,VWS V14.00,2013-05-08 01:59:00,
2013-05-07 21:04:00,62.0,51.3,29.98,NE,45,0.0,0.0,68,0.00,,---,0.00,VWS V14.00,2013-05-08 02:04:00,
2013-05-07 21:09:00,61.6,51.3,29.98,NE,45,0.0,0.0,69,0.00,,---,0.00,VWS V14.00,2013-05-08 02:09:00,
2013-05-07 21:14:00,61.3,51.1,29.98,NE,45,0.0,0.0,69,0.00,,---,0.00,VWS V14.00,2013-05-08 02:14:00,
2013-05-07 21:19:00,61.0,51.2,29.98,NE,45,0.0,0.0,70,0.00,,---,0.00,VWS V14.00,2013-05-08 02:19:00,
2013-05-07 21:24:00,60.7,51.2,29.98,NE,45,0.0,0.0,71,0.00,,---,0.00,VWS V14.00,2013-05-08 02:24:00,
2013-05-07 21:29:00,60.4,51.3,29.99,NE,45,0.0,0.0,72,0.00,,---,0.00,VWS V14.00,2013-05-08 02:29:00,
2013-05-07 21:34:00,60.1,51.4,29.99,NE,45,0.0,0.0,73,0.00,,---,0.00,VWS V14.00,2013-05-08 02:34:00,
2013-05-07 21:39:00,59.6,51.3,29.99,NE,45,0.0,0.0,74,0.00,,---,0.00,VWS V14.00,2013-05-08 02:39:00,
2013-05-07 21:44:00,59.5,51.6,30.00,NE,45,0.0,0.0,75,0.00,,---,0.00,VWS V14.00,2013-05-08 02:44:00,
2013-05-07 21:49:00,59.2,51.7,30.00,NE,45,0.0,0.0,76,0.00,,---,0.00,VWS V14.00,2013-05-08 02:49:00,
2013-05-07 21:54:00,58.9,51.7,30.00,NE,45,0.0,0.0,77,0.00,,---,0.00,VWS V14.00,2013-05-08 02:54:00,
2013-05-07 21:59:00,58.7,51.5,30.00,NE,45,0.0,0.0,77,0.00,,---,0.00,VWS V14.00,2013-05-08 02:59:00,
2013-05-07 22:04:00,58.6,51.8,29.99,NE,45,0.0,0.0,78,0.00,,---,0.00,VWS V14.00,2013-05-08 03:04:00,
2013-05-07 22:09:00,58.6,51.8,29.99,NE,45,0.0,0.0,78,0.00,,---,0.00,VWS V14.00,2013-05-08 03:09:00,
2013-05-07 22:14:00,58.3,51.5,29.99,NE,45,0.0,0.0,78,0.00,,---,0.00,VWS V14.00,2013-05-08 03:14:00,
2013-05-07 22:19:00,58.1,51.6,29.99,NE,45,0.0,0.0,79,0.00,,---,0.00,VWS V14.00,2013-05-08 03:19:00,
2013-05-07 22:24:00,58.0,51.9,30.00,NE,45,3.0,4.0,80,0.00,,---,0.00,VWS V14.00,2013-05-08 03:24:00,
2013-05-07 22:29:00,57.8,52.0,30.00,NE,45,0.0,0.0,81,0.00,,---,0.00,VWS V14.00,2013-05-08 03:29:00,
2013-05-07 22:34:00,57.8,52.0,30.00,NE,45,0.0,0.0,81,0.00,,---,0.00,VWS V14.00,2013-05-08 03:34:00,
2013-05-07 22:39:00,57.3,51.9,30.00,NE,45,0.0,0.0,82,0.00,,---,0.00,VWS V14.00,2013-05-08 03:39:00,
2013-05-07 22:44:00,57.2,51.8,30.00,NE,45,0.0,0.0,82,0.00,,---,0.00,VWS V14.00,2013-05-08 03:44:00,
2013-05-07 22:49:00,57.0,51.6,30.00,NE,45,0.0,0.0,82,0.00,,---,0.00,VWS V14.00,2013-05-08 03:49:00,
2013-05-07 22:54:00,56.9,51.8,30.00,NE,45,0.0,0.0,83,0.00,,---,0.00,VWS V14.00,2013-05-08 03:54:00,
2013-05-07 22:59:00,56.9,51.8,30.00,NE,45,0.0,0.0,83,0.00,,---,0.00,VWS V14.00,2013-05-08 03:59:00,
2013-05-07 23:01:00,56.9,51.8,30.00,NE,45,0.0,0.0,83,0.00,,---,0.00,VWS V14.00,2013-05-08 04:01:00,
2013-05-07 23:06:00,56.7,51.6,30.00,NE,45,0.0,0.0,83,0.00,,---,0.00,VWS V14.00,2013-05-08 04:06:00,
2013-05-07 23:11:00,56.5,51.7,30.00,NE,45,0.0,0.0,84,0.00,,---,0.00,VWS V14.00,2013-05-08 04:11:00,
2013-05-07 23:16:00,56.3,51.5,30.00,NE,45,0.0,0.0,84,0.00,,---,0.00,VWS V14.00,2013-05-08 04:16:00,
2013-05-07 23:21:00,56.2,51.8,30.00,NE,45,0.0,0.0,85,0.00,,---,0.00,VWS V14.00,2013-05-08 04:21:00,
2013-05-07 23:26:00,56.0,51.9,30.00,NE,45,0.0,0.0,86,0.00,,---,0.00,VWS V14.00,2013-05-08 04:26:00,
2013-05-07 23:31:00,56.0,51.9,30.00,NE,45,0.0,0.0,86,0.00,,---,0.00,VWS V14.00,2013-05-08 04:31:00,
2013-05-07 23:36:00,55.9,51.8,30.00,NE,45,0.0,0.0,86,0.00,,---,0.00,VWS V14.00,2013-05-08 04:36:00,
2013-05-07 23:41:00,55.7,51.6,30.00,NE,45,0.0,0.0,86,0.00,,---,0.00,VWS V14.00,2013-05-08 04:41:00,
2013-05-07 23:46:00,55.4,51.3,30.00,NE,45,0.0,0.0,86,0.00,,---,0.00,VWS V14.00,2013-05-08 04:46:00,
2013-05-07 23:51:00,55.3,51.2,29.99,NE,45,0.0,0.0,86,0.00,,---,0.00,VWS V14.00,2013-05-08 04:51:00,
2013-05-07 23:56:00,55.3,51.2,29.99,NE,45,0.0,0.0,86,0.00,,---,0.00,VWS V14.00,2013-05-08 04:56:00,